Location: Juzet
(42.9779°N, 0.7597°E)
Time: 08:43:45
(UTC+00:00)

Cosmos 1814 Rocket - Pass Details

Date: 14 July 2020
Orbit: 745 x 786 km, 74.1° (Epoch: 04 August)

Event Time Altitude Azimuth Distance (km) Brightness Sun altitude
Rises 03:54:50 0° 337° (NNW) 3,198 7.4 -6.3°
Reaches altitude 10° 03:57:12 10° 336° (NNW) 2,271 6.6 -5.9°
Maximum altitude 04:02:19 73° 253° (WSW) 787 3.9 -5.2°
Drops below altitude 10° 04:07:26 10° 169° (S) 2,269 6.2 -4.4°
Sets 04:09:48 0° 168° (SSE) 3,195 7.0 -4.1°
